Flag for Hungary Weather past 2 weeks in Pécs, Hungary

Now
46 °F

Light rain. Low clouds.


Feels Like: 45 °F
Forecast: 42 / 46 °F
Wind: 3 mph from North

Location: Pecs / Pogany

Current Time: Oct 23, 2014 at 7:21:36 PM

Latest Report: Oct 23, 2014 at 6:00 PM


Visibility: 6 mi

Pressure: 29.75 "Hg

Humidity: 96%

Dew point: 45 °F

Location of PécsLocation

Historic Weather in Pécs — Graph

°F

Pécs temperature yesterday

Maximum temperature yesterday: 59 °F (at 1:00 AM)
Minimum temperature yesterday: 43 °F (at 11:00 PM)
Average temperature yesterday: 48 °F

Past Weeks' High & Low Weather Summary

 TemperatureHumidityPressure
High79 °F (Oct 13, 4:00 PM)99% (Oct 9, 9:00 AM)30.38 "Hg (Oct 9, 9:00 AM)
Low42 °F (Oct 23, 12:00 AM)41% (Oct 10, 5:00 PM)29.56 "Hg (Oct 22, 4:00 AM)
Average60 °F81%29.98 "Hg
* Reported Oct 8 6:00 PM — Oct 23 6:00 PM, Pécs, Weather by CustomWeather, © 2014

Note: Actual official high and low records may vary slightly from our data, if they occured in-between our weather recording intervals... More about our weather records

Advertising

Pécs weather history for previous 24 hours

 ConditionsComfort  
Time TempWeatherWind HumidityBarometerVisibility
6:00 PM
Oct 23
46 °FLight rain. Low clouds.3 mph96%29.75 "Hg6 mi
5:00 PM46 °FLight rain. Low clouds.5 mph95%29.73 "Hg6 mi
4:00 PM46 °FLight rain. Overcast.6 mph94%29.73 "Hg5 mi
3:00 PM46 °FLight rain. Overcast.5 mph95%29.73 "Hg4 mi
2:00 PM46 °FDrizzle. Overcast.5 mph94%29.72 "Hg3 mi
1:00 PM46 °FLight rain. Low clouds.5 mph89%29.74 "Hg7 mi
12:00 PM45 °FLow clouds.5 mph86%29.75 "Hg25 mi
11:00 AM45 °FLow clouds.5 mph89%29.74 "Hg25 mi
10:00 AM45 °FLow clouds.3 mph86%29.75 "Hg37 mi
9:00 AM44 °FLow clouds.5 mph89%29.73 "Hg31 mi
8:00 AM44 °FOvercast.3 mph90%29.72 "Hg19 mi
7:00 AM44 °FOvercast.5 mph91%29.71 "Hg11 mi
6:00 AM44 °FOvercast.5 mph90%29.71 "Hg9 mi
5:00 AM44 °FOvercast.3 mph89%29.72 "Hg6 mi
4:00 AM44 °FOvercast.5 mph91%29.73 "Hg6 mi
3:00 AM44 °FOvercast.3 mph91%29.75 "Hg6 mi
2:00 AM43 °FOvercast.3 mph93%29.75 "Hg6 mi
1:00 AM43 °FOvercast.3 mph94%29.73 "Hg6 mi
12:00 AM42 °FPassing clouds.5 mph96%29.75 "Hg6 mi
11:00 PM
Oct 22
43 °FOvercast.3 mph95%29.76 "Hg6 mi
10:00 PM43 °FLight rain. Overcast.2 mph96%29.78 "Hg6 mi
9:00 PM44 °FOvercast.5 mph94%29.78 "Hg9 mi
8:00 PM44 °FOvercast.6 mph94%29.75 "Hg9 mi
7:00 PM44 °FOvercast.6 mph95%29.78 "Hg9 mi
Weather by CustomWeather, © 2014

See weather overviewHow to use our weather pages